Location: Unspecified
(43.4354°N, 0.0000°E)
Time: 18:42:40
(UTC+00:00)

Tiros 1 despin weight - Pass Details

Date: 04 July 2019
Orbit: 594 x 642 km, 48.2° (Epoch: 16 July)

Event Time Altitude Azimuth Distance (km) Brightness Sun altitude
Rises 20:32:50 0° 273° (W) 2,890 ? -7.9°
Reaches altitude 10° 20:35:14 10° 279° (W) 1,976 ? -8.2°
Maximum altitude 20:39:37 47° 354° (N) 815 ? -8.8°
Drops below altitude 10° 20:43:56 10° 68° (ENE) 1,949 ? -9.3°
Sets 20:46:17 0° 75° (ENE) 2,846 ? -9.6°
